Regional Weather Roundup
Issued by NWS

Home | Current Version | Previous Version | Text Only | Print | Product List | Glossary Off
Versions: 1 2 3 4 5 6 7 8 9 10 11 12 13 14 15 16 17 18 19 20 21 22 23 24 25 26 27 28 29 30 31 32 33 34 35 36 37 38 39 40 41 42 43 44 45 46 47 48 49 50

000
ASUS43 KIND 310059
RWRIN

WEATHER ROUNDUP FOR INDIANA
NATIONAL WEATHER SERVICE INDIANAPOLIS IN
900 PM EDT THU JUL 30 2015

NOTE: "FAIR" INDICATES FEW OR NO CLOUDS BELOW 12,000 FEET WITH NO
SIGNIFICANT WEATHER AND/OR OBSTRUCTIONS TO VISIBILITY.

* - STATION DOES NOT REPORT WEATHER SUCH AS PRECIPITATION OR FOG.

+ - STATION NOT QUALITY CONTROLLED BY THE NATIONAL WEATHER SERVICE.
    USE DATA WITH CAUTION...ESPECIALLY DEWPOINT AND RELATIVE
    HUMIDITY OBSERVATIONS.

INZ001>003-010>013-019-020-310200-
NORTHWEST INDIANA

CITY           SKY/WX    TMP DP  RH WIND       PRES   REMARKS
GARY /AIRPORT/ PTCLDY    84  52  32 W12G25    30.00S
KNOX *+        CLEAR     73  61  64 W5        30.00S
MONTICELLO +   CLEAR     77  60  56 W3        30.02R
RENSSELAER +   CLEAR     75  61  60 W6        30.03S

$$

LMZ046-743>745-310200-
SOUTHERN LAKE MICHIGAN

STATION/POSITION TIME  TEMP    WIND        PRES    WAVE
                       AIR SEA DIR/SP/G            HT
                 (UTC) (F)     (DEG/KT/KT) (MB)    (FT)
BURNS HARBOR     0000   87      CALM  /  1 1015.9F
MICHIGAN CITY    0000   80     210/  3/  4   N/A
5NW MICH CITY    0000   79 76  220/  2/  4   N/A     1

$$

INZ004-005-014>016-021>024-310200-
NORTH CENTRAL INDIANA

CITY           SKY/WX    TMP DP  RH WIND       PRES   REMARKS
ELKHART        CLEAR     75  55  50 W3        30.00S
GOSHEN         CLEAR     74  60  61 W6        30.00S
SOUTH BEND     CLEAR     78  59  51 W5        30.00F
WARSAW +       CLEAR     73  61  64 CALM      30.01S

$$

INZ006>009-017-018-025>027-310200-
NORTHEAST INDIANA

CITY           SKY/WX    TMP DP  RH WIND       PRES   REMARKS
ANGOLA *+      CLEAR     75  70  83 CALM      30.00S
FORT WAYNE     CLEAR     72  61  68 SW3       30.02S

$$

INZ028-029-035-036-043>045-051>053-310200-
WEST CENTRAL INDIANA

CITY           SKY/WX    TMP DP  RH WIND       PRES   REMARKS
CRAWFORDSVL +  CLEAR     71  62  71 W3          N/A
GREENCASTLE +  CLEAR     75  57  53 CALM      30.06S
LAFAYETTE      CLEAR     75  64  68 CALM      30.03R
TERRE HAUTE    CLEAR     79  62  56 NW5       30.05S

$$

INZ030>032-037>040-046>048-054>057-064-065-310200-
CENTRAL INDIANA

CITY           SKY/WX    TMP DP  RH WIND       PRES   REMARKS
GREENWOOD *+   CLEAR     77  52  41 NW6       30.05S
INDIANAPOLIS   PTCLDY    78  57  48 W7        30.04S
-EAGLE CREEK   CLEAR     77  60  55 NW6       30.04S
KOKOMO *+      CLEAR     77  59  53 W8        30.03S
MT COMFORT *+  CLEAR     75  50  41 NW7       30.05S
SHELBYVILLE    CLEAR     75  58  55 NW5       30.04R

$$

INZ033-034-041-042-049-050-058-059-310200-
EAST CENTRAL INDIANA

CITY           SKY/WX    TMP DP  RH WIND       PRES   REMARKS
MUNCIE         CLEAR     74  60  61 W5        30.03S

$$

INZ060-061-067>069-081>083-085>088-310200-
SOUTHWEST INDIANA

CITY           SKY/WX    TMP DP  RH WIND       PRES   REMARKS
EVANSVILLE     PTCLDY    79  66  64 W5        30.06S
HUNTINGBURG *+ PTCLDY    75  66  73 W3        30.06S

$$

INZ062-063-066-070>080-084-089>092-310200-
SOUTH CENTRAL AND SOUTHEAST INDIANA

CITY           SKY/WX    TMP DP  RH WIND       PRES   REMARKS
BLOOMINGTON    CLEAR     72  68  87 CALM      30.06S
MADISON *+     CLEAR     72  63  73 CALM      30.07S
SEYMOUR +      CLEAR     77  63  61 CALM      30.04S

$$



USA.gov is the U.S. government's official web portal to all federal, state and local government web resources and services.